EHI
0 0 0 0 0 0 0 0 0 0 0 0 0 0 0 0 0 0 0 0 0 0 0 0 0 0 0 0 0 0 0 0 0 0 0 0 0 0 0 0 0 0 0 0
0 0 0 0 0 0 0 0 0 0 0 0 0 0 0 0 0 0 0 0 0 0 0 0 0 0 0 0 0 0 0 0 0 0 0 0 0 0 0 0 0 0 0 0
0 0 0 0 0 0 0 0 0 0 0 0 0 0 0 0 0 0 0 0 0 0 0 0 0 0 0 0 0 0 0 0 0 0 0 0 0 0 0 0 0 0 0 0
0 0 0 0 0 0 0 0 0 0 0 0 0 0 0 0 0 0 0 0 0 0 0 0 0 0 0 0 0 0 0 0 0 0 0 0 0 0 0 0 0 0 0 0
0 0 0 0 0 0 0 0 0 0 0 0 0 0 0 0 0 0 0 0 0 0 0 0 0 0 0 0 0 0 0 0 0 0 0 0 0 0 0 0 0 0 0 0
0 0 0 0 0 0 0 0 0 0 0 0 0 0 0 0 0 0 0 0 0 0 0 0 0 0 0 0 0 0 0 0 0 0 0 0 0 0 0 0 0 0 0 0
0 0 0 0 0 0 0 0 0 0 0 0 0 0 0 0 0 0 0 0 0 0 0 0 0 0 0 0 0 0 0 0 0 0 0 0 0 0 0 0 0 0 0 0
0 0 0 0 0 0 0 0 0 0 0 0 0 0 0 0 0 0 0 0 0 0 0 0 0 0 0 0 0 0 0 0 0 0 0 0 0 0 0 0 0 0 0 0
0 0 0 0 0 0 0 0 0 0 0 0 0 0 0 0 0 0 0 0 0 0 0 0 0 0 0 0 0 0 0 0 0 0 0 0 0 0 0 0 0 0 0 0
0 0 0 0 0 0 0 0 0 0 0 0 0 0 0 0 0 0 0 0 0 0 0 0 0 0 0 0 0 0 0 0 0 0 0 0 0 0 0 0 0 0 0 0
0 0 0 0 0 0 0 0 0 0 0 0 0 0 0 0 0 0 0 0 0 0 0 0 0 0 0 0 0 0 0 0 0 0 0 0 0 0 0 0 0 0 0 0
0 0 0 0 0 0 0 0 0 0 0 0 0 0 0 0 0 0 0 0 0 0 0 0 0 0 0 0 0 0 0 0 0 0 0 0 0 0 0 0 0 0 0 0
0 0 0 0 0 0 0 0 0 0 0 0 0 0 0 0 0 0 0 0 0 0 0 0 0 0 0 0 0 0 0 0 0 0 0 0 0 0 0 0 0 0 0 0
0 0 0 0 0 0 0 0 0 0 0 0 0 0 0 0 0 0 0 0 0 0 0 0 0 0 0 0 0 0 0 0 0 0 0 0 0 0 0 0 0 0 0 0
0 0 0 0 0 0 0 0 0 0 0 0 0 0 0 0 0 0 0 0 0 0 0 0 0 0 0 0 0 0 0 0 0 0 0 0 0 0 0 0 0 0 0 0
0 0 0 0 0 0 0 0 0 0 0 0 0 0 0 0 0 0 0 0 0 0 0 0 0 0 0 0 0 0 0 0 0 0 0 0 0 0 0 0 0 0 0 0
0 0 0 0 0 0 0 0 0 0 0 0 0 0 0 0 0 0 0 0 0 0 0 0 0 0 0 0 0 0 0 0 0 0 0 0 0 0 0 0 0 0 0 0
0 0 0 0 0 0 0 0 0 0 0 0 0 0 0 0 0 0 0 0 0 0 0 0 0 0 0 0 0 0 0 0 0 0 0 0 0 0 0 0 0 0 0 0
0 0 0 0 0 0 0 0 0 0 0 0 0 0 0 0 0 0 0 0 0 0 0 0 0 0 0 0 0 0 0 0 0 0 0 0 0 0 0 0 0 0 0 0
0 0 0 0 0 0 0 0 0 0 0 0 0 0 0 0 0 0 0 0 0 0 0 0 0 0 0 0 0 0 0 0 0 0 0 0 0 0 0 0 0 0 0 0
0 0 0 0 0 0 0 0 0 0 0 0 0 0 0 0 0 0 0 0 0 0 0 0 0 0 0 0 0 0 0 0 0 0 0 0 0 0 0 0 0 0 0 0
0 0 0 0 0 0 0 0 0 0 0 0 0 0 0 0 0 0 0 0 0 0 0 0 0 0 0 0 0 0 0 0 0 0 0 0 0 0 0 0 0 0 0 0
0 0 0 0 0 0 0 0 0 0 0 0 0 0 0 0 0 0 0 0 0 0 0 0 0 0 0 0 0 0 0 0 0 0 0 0 0 0 0 0 0 0 0 0
0 0 0 0 0 0 0 0 0 0 0 0 0 0 0 0 0 0 0 0 0 0 0 0 0 0 0 0 0 0 0 0 0 0 0 0 0 0 0 0 0 0 0 0
0 0 0 0 0 0 0 0 0 0 0 0 0 0 0 0 0 0 0 0 0 0 0 0 0 0 0 0 0 0 0 0 0 0 0 0 0 0 0 0 0 0 0 0
0 0 0 0 0 0 0 0 0 0 0 0 0 0 0 0 0 0 0 0 0 0 0 0 0 0 0 0 0 0 0 0 0 0 0 0 0 0 0 0 0 0 0 0
Wind_Speed
2 1 2 2 4 4 4 4 6 5 1 2 6 8 7 3 2 2 2 2 2 2 2 3 2 2 2 2 2 2 2 1 1 1 1 1 0 0 1 1 2 2 2 2
1 3 3 2 2 3 4 5 7 4 1 3 5 9 6 3 3 2 2 2 1 2 2 2 2 2 2 2 2 1 1 1 1 0 0 1 1 0 0 1 1 1 2 2
3 1 0 2 3 4 4 5 5 5 5 5 5 7 4 2 2 2 2 1 2 2 2 2 2 2 1 1 1 0 1 1 2 2 1 1 1 1 1 1 1 1 1 1
2 1 2 2 2 3 5 2 4 4 3 4 2 6 4 3 3 2 2 1 1 1 1 1 1 1 1 0 1 1 1 1 2 2 1 1 1 0 0 0 1 1 1 1
2 0 1 2 2 2 2 3 4 5 4 5 5 5 6 3 3 3 2 2 2 2 2 1 1 1 1 1 1 0 1 1 1 2 1 1 0 1 0 1 1 1 1 1
2 1 1 2 2 1 1 2 4 3 2 6 7 6 6 3 4 2 2 2 2 2 1 1 1 2 2 1 1 1 1 1 1 1 1 1 1 1 1 1 1 1 1 1
2 2 1 1 1 0 1 1 2 2 4 7 3 5 5 1 3 4 3 3 2 2 2 1 1 1 1 1 1 1 1 1 1 1 1 1 1 1 0 1 1 1 1 2
3 2 2 1 0 1 2 2 3 4 4 3 2 5 3 2 3 3 3 3 3 2 2 1 1 1 0 1 1 0 0 0 0 0 1 1 1 1 1 1 1 2 1 2
3 1 2 2 2 2 2 2 1 2 4 5 6 3 2 2 2 2 2 3 2 1 1 1 1 1 1 1 1 0 0 0 0 1 1 1 1 1 1 2 2 1 2 2
3 4 1 1 1 2 2 2 1 2 3 6 6 5 3 2 1 0 1 1 1 1 1 1 1 1 0 0 0 0 0 1 1 1 1 1 1 1 1 1 2 2 2 3
2 2 2 1 4 3 2 2 3 3 4 4 5 3 1 2 2 2 1 0 0 1 1 1 1 1 1 1 0 0 1 1 1 1 1 1 2 2 1 2 2 2 2 3
1 1 3 3 1 2 1 3 3 3 5 4 4 5 2 4 3 2 1 1 1 1 1 1 1 1 1 1 1 1 1 1 1 1 1 1 2 2 2 2 2 2 3 3
1 0 3 3 1 1 2 3 2 2 2 4 5 6 1 3 3 2 1 2 1 1 2 2 1 1 1 1 1 1 1 1 1 1 2 2 2 2 2 2 3 3 3 3
1 2 5 6 5 2 5 5 4 4 4 6 8 8 5 3 3 3 3 2 2 1 2 2 2 2 1 1 1 1 2 1 1 1 2 2 3 3 3 3 3 3 3 4
1 3 5 8 8 7 8 8 7 8 8 8 8 7 6 3 3 3 2 2 2 2 3 3 3 2 2 2 2 2 2 1 1 2 2 3 3 3 2 3 3 3 4 5
1 3 3 7 8 6 8 9 8 9 9 9 9 9 4 3 4 4 4 3 2 3 4 4 4 4 3 3 3 3 2 2 1 2 3 2 2 3 3 3 3 4 4 4
2 2 2 5 4 5 7 7 7 5 3 3 6 5 4 5 5 5 4 3 2 3 4 5 5 4 4 3 3 3 3 2 2 2 3 2 2 3 3 4 4 4 4 4
2 2 2 4 3 6 5 1 1 3 3 2 3 3 4 4 5 4 3 2 3 4 4 5 4 4 3 3 3 3 2 2 2 3 3 3 3 3 4 4 4 4 4 4
2 3 2 2 4 7 3 1 1 1 4 1 2 4 4 4 4 3 3 4 4 4 4 4 4 4 3 3 3 2 2 2 3 3 4 3 3 4 4 4 5 4 4 5
1 1 2 2 3 5 3 1 2 1 3 2 1 2 4 4 4 4 4 5 5 4 4 4 4 3 3 3 2 2 2 2 3 4 4 3 3 4 5 5 5 5 5 5
1 2 3 4 5 6 1 1 2 0 4 2 2 2 3 3 4 4 5 6 5 5 5 4 4 4 3 3 2 2 3 4 4 3 4 4 4 4 5 5 5 4 5 5
4 3 4 3 4 6 1 2 1 3 2 2 3 3 3 4 4 5 5 6 6 6 6 5 4 4 4 2 2 3 4 3 3 3 4 4 4 5 4 4 4 4 4 5
4 4 3 5 5 1 1 0 1 2 2 3 3 3 3 5 6 6 6 5 5 6 6 5 4 5 4 3 2 4 4 3 3 3 4 4 5 5 5 4 4 4 4 4
2 1 1 3 4 2 1 1 3 3 3 3 3 3 3 5 6 6 6 6 6 5 5 5 5 5 5 4 4 3 4 3 3 4 4 4 4 4 4 4 4 4 3 4
2 1 2 5 5 4 2 2 3 3 3 4 4 4 3 4 5 6 6 6 6 6 6 5 5 5 6 5 4 4 3 3 3 4 4 4 4 4 4 4 3 4 4 5
1 3 3 5 3 3 4 2 3 3 4 4 4 5 4 4 5 5 5 5 6 6 6 6 6 6 6 5 5 4 3 3 3 4 4 3 3 3 3 3 4 7 8 10
Wind_Direction
170 189 223 229 229 257 297 296 287 288 309 255 245 257 260 241 203 201 178 166 164 154 114 103 105 99 80 70 69 64 42 30 40 90 106 125 116 49 63 53 44 26 9 360
191 236 255 277 283 272 274 279 282 293 349 277 267 269 264 231 202 175 164 146 136 112 98 106 105 95 84 71 64 62 44 30 12 38 159 174 159 225 124 63 32 23 19 8
222 275 315 280 290 271 266 260 277 291 312 273 278 283 230 170 133 117 111 121 122 124 135 136 128 119 100 85 59 32 20 34 11 20 70 68 60 38 29 23 9 0 17 17
263 285 299 275 278 276 266 314 301 289 288 269 229 280 249 182 160 163 165 148 133 110 116 133 134 120 120 106 68 20 34 33 21 47 65 116 133 170 282 305 333 342 6 11
266 58 300 265 285 283 276 336 288 270 254 273 241 248 266 181 195 201 174 158 119 93 92 99 110 122 92 62 72 58 56 32 47 53 48 51 41 354 11 11 348 337 339 360
245 292 329 310 331 308 310 288 264 252 243 259 230 212 259 205 193 172 143 118 120 121 112 89 72 70 56 49 41 53 76 21 49 56 38 20 14 4 358 341 330 327 336 341
237 201 177 349 304 243 294 342 317 268 220 241 217 217 244 180 132 137 140 137 117 109 106 92 74 66 48 24 12 43 60 12 28 40 3 335 338 324 295 318 305 314 321 322
281 261 156 112 326 261 234 202 198 243 262 283 277 238 235 126 97 88 97 114 103 84 80 71 53 31 2 1 1 9 187 266 348 326 309 324 332 334 321 318 307 299 292 292
304 269 73 57 351 319 256 234 258 277 285 276 251 233 211 104 86 76 83 91 91 71 77 71 44 22 356 311 296 306 250 277 289 301 311 308 330 333 318 315 316 310 305 298
336 295 222 126 291 275 289 320 303 217 259 266 264 242 226 197 222 40 64 74 66 37 33 48 32 327 280 303 278 72 243 272 296 293 283 298 305 303 299 307 302 298 299 306
350 285 267 196 207 219 193 232 235 250 249 256 278 276 65 126 137 155 182 166 102 27 356 353 350 333 343 1 9 302 263 279 296 288 292 302 302 299 294 295 290 293 299 299
12 307 274 258 299 355 247 239 208 221 257 247 270 276 79 92 88 85 30 3 53 29 343 334 2 17 6 356 335 299 279 286 289 293 298 300 305 309 304 301 299 303 301 297
57 210 298 299 325 1 281 262 249 246 275 253 249 262 123 66 48 45 26 3 5 4 352 360 9 12 356 341 321 313 301 299 311 309 299 299 298 296 291 293 299 302 301 299
25 221 217 247 275 281 269 261 243 224 237 253 246 266 289 335 340 340 348 356 350 356 357 358 346 334 332 326 314 309 303 300 305 301 293 291 292 290 288 291 297 299 297 294
159 241 246 264 274 270 267 270 247 233 236 244 266 275 291 308 311 315 324 331 338 343 345 342 331 324 324 327 326 318 304 299 296 285 280 284 294 301 301 300 301 299 294 292
197 255 286 277 267 267 275 274 260 252 251 255 271 282 307 334 342 330 323 324 329 330 329 328 330 332 328 327 322 319 305 293 291 281 279 286 296 302 300 297 295 294 292 289
202 207 259 272 285 304 277 258 239 240 234 237 255 271 326 337 330 316 314 321 315 319 323 323 324 322 320 314 314 302 297 298 288 283 288 295 296 292 289 291 294 292 289 287
202 222 240 276 310 253 249 258 212 239 255 266 278 302 318 310 306 313 325 341 332 328 323 321 322 317 316 312 309 308 313 305 293 291 292 292 290 293 296 295 292 292 290 286
223 205 241 261 266 269 275 358 17 241 281 320 287 312 335 335 318 321 1 6 338 323 314 310 311 309 312 309 308 317 309 299 289 286 286 288 293 296 294 291 291 292 291 289
20 174 222 247 261 263 277 331 338 45 289 356 12 319 326 337 318 298 342 346 331 325 319 315 316 317 315 310 311 300 289 285 277 280 286 290 288 288 288 288 292 292 290 287
165 201 222 239 251 262 293 338 26 68 275 331 348 323 321 308 277 290 316 323 324 322 319 319 316 312 305 304 304 287 284 280 284 293 295 291 287 283 282 284 286 287 289 291
185 194 208 214 236 257 58 85 178 251 325 344 335 329 317 305 306 311 315 318 322 323 321 321 318 312 311 307 296 290 287 293 302 302 298 294 290 285 286 281 284 284 284 287
204 204 208 205 223 264 104 200 285 338 319 321 321 316 308 306 309 312 313 313 316 318 317 318 311 308 311 310 293 283 292 299 298 295 292 292 294 290 288 283 283 285 281 280
238 319 263 273 273 280 269 281 320 329 315 322 324 318 316 306 306 310 311 314 317 317 316 315 310 307 307 310 300 284 290 293 288 287 291 293 293 291 289 284 282 282 280 281
263 194 261 263 281 305 299 319 338 337 343 346 341 330 318 311 310 312 312 314 316 319 319 316 309 304 302 307 303 297 292 284 285 287 291 295 292 289 291 290 284 287 273 281
232 212 228 252 278 274 291 334 342 334 331 331 329 325 324 316 306 310 309 310 313 314 315 314 309 305 303 304 301 300 294 277 275 287 291 290 289 291 294 295 300 300 298 299